カタログに戻る

DELTA 1 DEB

運用中LEO
NORAD 7175·DEBRIS·🇺🇸 United States

打ち上げ Nov 6, 1973 から Vandenberg Space Force Base

Loading…

次のパス (今後24時間)

TLE

最新Source: Space-Track

元期: Sep 12, 2026, 13:17 UTC

1 07175U 73086EM  26255.55352779  .00000145  00000-0  66112-3 0  9996
2 07175 102.5902 126.2027 0196311  43.9467  23.6426 12.94235141480259

AllMySatでDELTA 1 DEBをリアルタイム追跡

Download on the App Store